NGC 5828 (also NGC 5828B, MCG 8-27-51, UGC 9658 and PGC 53618) is a magnitude +13.6 face-on spiral galaxy located 187 million light-years away in the constellation Boötes. The galaxy was discovered by American astronomer Lewis A. Swift using a 40.6 cm (16 inch) Alvan Clark and Sons refractor at the W...
NGC 6076 (also NGC 6076-1, MCG 5-38-23, UGC 10253 and PGC 57409) is a magnitude +14.0 elliptical galaxy located 460 million light-years away in the constellation Corona Borealis. The galaxy was discovered by German astronomer Albert Marth using a 121.92 cm (48 inch) reflector at William Lassell...
NGC 6077 (also MCG 5-38-24, UGC 10254 and PGC 57408) is a magnitude +13.3 elliptical galaxy located 441 million light-years away in the constellation Corona Borealis. The galaxy was discovered by German astronomer Albert Marth using a 121.92 cm (48 inch) reflector at William Lassell's Tigné Poi...
NGC 6086 (also MCG 5-38-35, UGC 10270 and PGC 57482) is a magnitude +12.8 elliptical galaxy located 439 million light-years away in the constellation Corona Borealis. The galaxy was discovered by German astronomer Albert Marth using a 121.92 cm (48 inch) reflector at William Lassell's Tigné Poi...
NGC 6090 (also IRAS 16104+5235, MCG 9-26-64, UGC 10267 and PGC 57437) is a magnitude +13.7 spiral galaxy located 406 million light-years away in the constellation Draco. The galaxy was discovered by American astronomer Lewis A. Swift using a 40.6 cm (16 inch) Alvan Clark and Sons refractor at the Wa...
NGC 6096 (also MCG 5-38-44 and PGC 57598) is a magnitude +14.3 spiral galaxy located 453 million light-years away in the constellation Corona Borealis. The galaxy was discovered by German astronomer Albert Marth using a 121.92 cm (48 inch) reflector at William Lassell's Tigné Point observatory...
NGC 6102 (also MCG 5-38-47, UGC 10300 and PGC 57639) is a magnitude +13.9 spiral galaxy located 346 million light-years away in the constellation Corona Borealis. The galaxy was discovered by German astronomer Albert Marth using a 121.92 cm (48 inch) reflector at William Lassell's Tigné Point ob...
NGC 6371 (also MCG 4-41-12 and PGC 60322) is a magnitude +14.3 spiral galaxy located 295 million light-years away in the constellation Hercules. The galaxy was discovered by German astronomer Albert Marth using a 121.92 cm (48 inch) reflector at William Lassell's Tigné Point observatory in Slie...
NGC 6624 (also ESO 457-SC11 and GCL 93) is a magnitude +7.6 globular cluster located 25800 ą1100 light-years away in the constellation Sagittarius. The cluster was discovered by German-British astronomer William Herschel using a 47.5 cm (18.7 inch) f/13 speculum reflecting telescope at Datche...
Orbital elements:
2014 LJ21 PHA, Earth MOID = 0.0141 AU
Epoch 2014 May 23.0 TT = JDT 2456800.5 MPC
M 8.97110 (2000.0) P Q
n 0.20934807 Peri. 301.81249 +0.29793577 -0.89693343
a 2.8090324 Node 127.23891 +0.95399777 +0.26775661
e 0.8939133 Incl. 24.22924 +0.03350425 +0.35187615
P 4.71 H 15...
NGC 6718 (also ESO 104-29, IRAS 18566-6611 and PGC 62688) is a magnitude +13.2 spiral galaxy located 198 million light-years away in the constellation Pavo. The galaxy was discovered by British astronomer John Herschel using a 47.5 cm (18.7 inch) f/13 speculum reflecting telescope at the Cape of G...
NGC 6719 (also ESO 72-8, IRAS 18578-6839 and PGC 62710) is a magnitude +12.8 spiral galaxy located 174 million light-years away in the constellation Pavo. The galaxy was discovered by British astronomer John Herschel using a 47.5 cm (18.7 inch) f/13 speculum reflecting telescope at the Cape of Goo...
NGC 6784 (also NGC 6784A, ESO 104-55 and PGC 63209) is a magnitude +13.8 elliptical galaxy located in the constellation Pavo. The galaxy was discovered by British astronomer John Herschel using a 47.5 cm (18.7 inch) f/13 speculum reflecting telescope at the Cape of Good Hope on the 23rd June 1835. R...
The Battle of Bannockburn (24 June 1314) was a significant Scottish victory in the Wars of Scottish Independence. Read more Braveheart Trilogy~The Royal Scots Dragoon Guards.( Bannockburn ) Spoiler Braveheart Theme Song...
Orbital elements:
2011 MD Earth MOID = 0.0006 AU
Epoch 2011 Aug. 27.0 TT = JDT 2455800.5 MPC
M 51.54504 (2000.0) P Q
n 0.90091518 Peri. 6.12962 +0.15113548 +0.98754135
a 1.0617284 Node 272.56906 -0.90879587 +0.12137078
e 0.0431456 Incl. 2.51400 -0.38890632 +0.10015593
P 1.09 H 27.7 G 0.15...